When you browse on this site, cookies collect data to enhance your experience and personalize the content and advertising you see.
Visit our Privacy Policy to learn more. By continuing to use the site, you agree to this use of cookies and data.
  • In United Kingdom
  • List of Countries
  • For 7 days
  • Water Temperature
  • Weather Map
  • Weather Widgets
  • user-avatar
    Login

    Hourly Weather Santa Bárbara

    Today, 10 December, Tuesday

    Time Temperature Precipitation Wind Pressure Humidity
    00:00 +20°C° 0 mm 0 mps 722 mmHg 97%
    01:00 +20°C° 0 mm 0 mps 721 mmHg 97%
    02:00 +20°C° 0 mm 0 mps 721 mmHg 96%
    03:00 +20°C° 0 mm 0 mps 721 mmHg 95%
    04:00 +20°C° 0 mm 0 mps 722 mmHg 95%
    05:00 +20°C° 0 mm 0 mps 722 mmHg 94%
    06:00 +20°C° 0 mm 0 mps 722 mmHg 94%
    07:00 +22°C° 0 mm 0 mps 722 mmHg 86%
    08:00 +23°C° 0 mm 0 mps 723 mmHg 78%
    09:00 +25°C° 0 mm 0 mps 723 mmHg 70%
    10:00 +27°C° 0 mm 0 mps 723 mmHg 63%
    11:00 +31°C° 0 mm 1 mps 723 mmHg 56%
    12:00 +32°C° 0 mm 1 mps 722 mmHg 49%
    13:00 +32°C° 0 mm 1 mps 722 mmHg 49%
    14:00 +32°C° 0 mm 1 mps 721 mmHg 49%
    15:00 +32°C° 0 mm 1 mps 720 mmHg 49%
    16:00 +30°C° 0 mm 1 mps 721 mmHg 61%
    17:00 +27°C° 0 mm 1 mps 721 mmHg 74%
    18:00 +25°C° 0 mm 1 mps 721 mmHg 86%
    19:00 +22°C° 0 mm 0 mps 721 mmHg 90%
    20:00 +21°C° 0 mm 0 mps 722 mmHg 94%
    21:00 +21°C° 0 mm 0 mps 722 mmHg 97%
    22:00 +20°C° 0 mm 0 mps 722 mmHg 97%
    23:00 +20°C° 0 mm 0 mps 722 mmHg 98%

    Tomorrow, 11 December, Wednesday

    Time Temperature Precipitation Wind Pressure Humidity
    00:00 +20°C° 0 mm 0 mps 722 mmHg 98%
    01:00 +20°C° 0 mm 0 mps 722 mmHg 97%
    02:00 +20°C° 0 mm 0 mps 722 mmHg 97%
    03:00 +20°C° 0 mm 0 mps 721 mmHg 97%
    04:00 +20°C° 0 mm 0 mps 722 mmHg 97%
    05:00 +20°C° 0 mm 0 mps 722 mmHg 96%
    06:00 +20°C° 0 mm 0 mps 723 mmHg 96%
    07:00 +22°C° 0 mm 0 mps 723 mmHg 89%
    08:00 +24°C° 0 mm 0 mps 724 mmHg 81%
    09:00 +26°C° 0 mm 0 mps 725 mmHg 73%
    10:00 +29°C° 0.1 mm 1 mps 724 mmHg 68%
    11:00 +30°C° 0.1 mm 1 mps 723 mmHg 64%
    12:00 +31°C° 0.1 mm 1 mps 723 mmHg 59%
    13:00 +30°C° 0.2 mm 1 mps 722 mmHg 61%
    14:00 +30°C° 0.2 mm 2 mps 722 mmHg 63%
    15:00 +30°C° 0.2 mm 2 mps 721 mmHg 65%
    16:00 +28°C° 0.8 mm 1 mps 722 mmHg 76%
    17:00 +25°C° 0.8 mm 1 mps 722 mmHg 86%
    18:00 +23°C° 0.8 mm 1 mps 722 mmHg 97%
    19:00 +23°C° 0.9 mm 1 mps 722 mmHg 97%
    20:00 +23°C° 0.9 mm 1 mps 723 mmHg 98%
    21:00 +21°C° 0.9 mm 0 mps 724 mmHg 98%
    22:00 +20°C° 0.2 mm 0 mps 724 mmHg 98%
    23:00 +20°C° 0.2 mm 0 mps 723 mmHg 98%

    Day after tomorrow, 12 December, Thursday

    Time Temperature Precipitation Wind Pressure Humidity
    00:00 +20°C° 0.2 mm 0 mps 723 mmHg 99%
    01:00 +20°C° 0.1 mm 0 mps 723 mmHg 99%
    02:00 +20°C° 0.1 mm 0 mps 723 mmHg 99%
    03:00 +20°C° 0.1 mm 0 mps 722 mmHg 99%
    04:00 +20°C° 0.1 mm 0 mps 723 mmHg 98%
    05:00 +19°C° 0.1 mm 0 mps 723 mmHg 98%
    06:00 +19°C° 0.1 mm 0 mps 723 mmHg 98%
    07:00 +21°C° 0.1 mm 0 mps 723 mmHg 95%
    08:00 +24°C° 0.1 mm 1 mps 724 mmHg 91%
    09:00 +25°C° 0.1 mm 1 mps 725 mmHg 87%
    10:00 +27°C° 0.1 mm 1 mps 724 mmHg 78%
    11:00 +28°C° 0.1 mm 1 mps 723 mmHg 69%
    12:00 +29°C° 0.1 mm 2 mps 723 mmHg 59%
    13:00 +29°C° 0.1 mm 2 mps 722 mmHg 60%
    14:00 +29°C° 0.1 mm 2 mps 722 mmHg 61%
    15:00 +29°C° 0.1 mm 2 mps 721 mmHg 62%
    16:00 +27°C° 0.1 mm 1 mps 721 mmHg 73%
    17:00 +25°C° 0.1 mm 1 mps 721 mmHg 84%
    18:00 +23°C° 0.1 mm 1 mps 721 mmHg 96%
    19:00 +22°C° 0.1 mm 1 mps 722 mmHg 97%
    20:00 +20°C° 0.1 mm 0 mps 722 mmHg 97%
    21:00 +19°C° 0.1 mm 0 mps 723 mmHg 98%
    22:00 +19°C° 0 mm 0 mps 723 mmHg 98%
    23:00 +19°C° 0 mm 0 mps 722 mmHg 98%

    13 December, Friday

    Time Temperature Precipitation Wind Pressure Humidity
    00:00 +19°C° 0 mm 0 mps 722 mmHg 98%
    01:00 +19°C° 0 mm 0 mps 722 mmHg 98%
    02:00 +19°C° 0 mm 0 mps 722 mmHg 98%
    03:00 +19°C° 0 mm 0 mps 721 mmHg 98%
    04:00 +19°C° 0 mm 0 mps 721 mmHg 97%
    05:00 +19°C° 0 mm 0 mps 722 mmHg 97%
    06:00 +19°C° 0 mm 0 mps 722 mmHg 97%
    07:00 +20°C° 0 mm 0 mps 722 mmHg 91%
    08:00 +22°C° 0 mm 0 mps 723 mmHg 85%
    09:00 +23°C° 0 mm 0 mps 723 mmHg 79%
    10:00 +25°C° 0 mm 0 mps 723 mmHg 72%
    11:00 +28°C° 0 mm 1 mps 722 mmHg 65%
    12:00 +29°C° 0 mm 1 mps 722 mmHg 58%
    13:00 +29°C° 0 mm 1 mps 721 mmHg 60%
    14:00 +29°C° 0 mm 1 mps 720 mmHg 61%
    15:00 +29°C° 0 mm 1 mps 719 mmHg 63%
    16:00 +27°C° 0.3 mm 1 mps 720 mmHg 73%
    17:00 +25°C° 0.3 mm 1 mps 720 mmHg 84%
    18:00 +23°C° 0.3 mm 1 mps 720 mmHg 95%
    19:00 +20°C° 0 mm 0 mps 720 mmHg 96%
    20:00 +20°C° 0 mm 0 mps 721 mmHg 97%
    21:00 +20°C° 0 mm 0 mps 722 mmHg 98%
    22:00 +19°C° 0 mm 0 mps 721 mmHg 98%
    23:00 +19°C° 0 mm 0 mps 721 mmHg 98%

    14 December, Saturday

    Time Temperature Precipitation Wind Pressure Humidity
    00:00 +19°C° 0 mm 0 mps 721 mmHg 98%
    01:00 +19°C° 0 mm 0 mps 720 mmHg 98%
    02:00 +19°C° 0 mm 0 mps 720 mmHg 98%
    03:00 +18°C° 0 mm 0 mps 720 mmHg 98%
    04:00 +18°C° 0 mm 0 mps 720 mmHg 98%
    05:00 +18°C° 0 mm 0 mps 720 mmHg 98%
    06:00 +18°C° 0 mm 0 mps 721 mmHg 97%
    07:00 +20°C° 0 mm 0 mps 721 mmHg 90%
    08:00 +22°C° 0 mm 0 mps 722 mmHg 83%
    09:00 +24°C° 0 mm 0 mps 722 mmHg 75%
    10:00 +26°C° 0 mm 0 mps 722 mmHg 68%
    11:00 +29°C° 0 mm 1 mps 721 mmHg 61%
    12:00 +30°C° 0 mm 1 mps 721 mmHg 55%
    13:00 +29°C° 0 mm 1 mps 720 mmHg 57%
    14:00 +29°C° 0 mm 1 mps 719 mmHg 60%
    15:00 +29°C° 0 mm 1 mps 719 mmHg 63%
    16:00 +27°C° 0 mm 1 mps 719 mmHg 72%
    17:00 +25°C° 0 mm 1 mps 719 mmHg 81%
    18:00 +21°C° 0 mm 0 mps 720 mmHg 90%
    19:00 +21°C° 0 mm 0 mps 720 mmHg 92%
    20:00 +20°C° 0 mm 0 mps 721 mmHg 95%
    21:00 +20°C° 0 mm 0 mps 721 mmHg 97%
    22:00 +19°C° 0 mm 0 mps 721 mmHg 97%
    23:00 +19°C° 0 mm 0 mps 721 mmHg 98%

    15 December, Sunday

    Time Temperature Precipitation Wind Pressure Humidity
    00:00 +19°C° 0 mm 0 mps 721 mmHg 98%
    01:00 +19°C° 0 mm 0 mps 720 mmHg 98%
    02:00 +19°C° 0 mm 0 mps 720 mmHg 98%
    03:00 +19°C° 0 mm 0 mps 720 mmHg 98%
    04:00 +18°C° 0 mm 0 mps 720 mmHg 98%
    05:00 +18°C° 0 mm 0 mps 720 mmHg 98%
    06:00 +18°C° 0 mm 0 mps 721 mmHg 98%
    07:00 +20°C° 0 mm 0 mps 721 mmHg 89%
    08:00 +23°C° 0 mm 0 mps 722 mmHg 80%
    09:00 +25°C° 0 mm 0 mps 723 mmHg 72%
    10:00 +26°C° 0 mm 0 mps 722 mmHg 66%
    11:00 +29°C° 0 mm 1 mps 722 mmHg 61%
    12:00 +31°C° 0 mm 1 mps 721 mmHg 55%
    13:00 +30°C° 0 mm 1 mps 721 mmHg 55%
    14:00 +30°C° 0 mm 1 mps 720 mmHg 55%
    15:00 +30°C° 0 mm 1 mps 720 mmHg 56%
    16:00 +28°C° 0 mm 1 mps 720 mmHg 65%
    17:00 +26°C° 0 mm 1 mps 720 mmHg 75%
    18:00 +22°C° 0 mm 0 mps 720 mmHg 85%
    19:00 +21°C° 0 mm 0 mps 720 mmHg 88%
    20:00 +20°C° 0 mm 0 mps 721 mmHg 92%
    21:00 +19°C° 0 mm 0 mps 721 mmHg 95%
    22:00 +19°C° 0 mm 0 mps 721 mmHg 96%
    23:00 +19°C° 0 mm 0 mps 721 mmHg 96%
    Show more